Date String (YYYY-MM-DD hh:mm:ss) UTC,Instrument flags,absolute air pressure of the measurement (hPa),sample flow rate (lpm),inlet stack bypass flow (lpm),air temperature of the measurement (°C),ambient temperature measured by the external sensor (°C),aerosol sample conditioner tube jacket temperature (°C),OPC LED temperature (°C),internal box temperature (°C),relative humidity of the measurement (%),span deviation,mass concentration of particles derived from Lorenz-Mie calculation of OPC scattering (μg/m³),mass concentration of particles derived from Lorenz-Mie calculation of OPC scattering (μg/m³),mass concentration of particles derived from Lorenz-Mie calculation of OPC scattering (μg/m³)
DateTimeUTC,F1_M11,P_M11,Q1_M11,Q2_M11,T1_M11,T2_M11,T3_M11,T4_M11,T5_M11,U1_M11,ZSPAN_M11,X0_M11,X2_M11,X1_M11
2023-12-07 18:00:00,SystemResetWarning,0818.7,5.01,000.00,023.8,022.9,000.0,032.1,025.1,10.5,0000.0,0009.28,0001.24,0000.67
2023-12-07 18:01:00,SystemResetWarning,0818.7,5.01,000.00,023.8,022.9,000.0,032.1,025.1,10.6,0000.0,0008.83,0001.24,0000.68
2023-12-07 18:02:00,SystemResetWarning,0818.7,5.00,000.00,023.8,022.9,000.0,032.1,025.1,10.6,0000.0,0008.55,0001.27,0000.68
2023-12-07 18:03:00,SystemResetWarning,0818.7,4.99,000.00,023.8,022.9,000.0,032.1,025.1,10.2,0000.0,0008.21,0001.26,0000.68
2023-12-07 18:04:00,SystemResetWarning,0818.7,4.99,000.00,023.8,022.9,000.0,032.1,025.1,10.2,0000.0,0008.52,0001.28,0000.67
2023-12-07 18:05:00,SystemResetWarning,0818.5,5.01,000.00,023.8,022.9,000.0,032.1,025.1,10.6,0000.0,0008.19,0001.26,0000.66
2023-12-07 18:06:00,SystemResetWarning,0818.4,5.01,000.00,023.8,022.9,000.0,032.1,025.1,11.0,0000.0,0007.53,0001.17,0000.66
2023-12-07 18:07:00,SystemResetWarning,0818.5,4.99,000.00,023.8,022.9,000.0,032.1,025.1,10.9,0000.0,0007.17,0001.10,0000.65
2023-12-07 18:08:00,SystemResetWarning,0818.5,4.99,000.00,023.8,022.9,000.0,032.1,025.1,10.4,0000.0,0005.09,0001.05,0000.64
2023-12-07 18:09:00,SystemResetWarning,0818.9,5.01,000.00,023.8,022.9,000.0,032.1,025.1,10.3,0000.0,0003.34,0001.04,0000.64
2023-12-07 18:10:00,SystemResetWarning,0818.4,5.01,000.00,023.8,022.9,000.0,032.1,025.1,10.3,0000.0,0004.04,0001.08,0000.63
2023-12-07 18:11:00,SystemResetWarning,0818.3,5.00,000.00,023.8,022.9,000.0,032.1,025.1,9.7,0000.0,0005.64,0001.17,0000.62
2023-12-07 18:12:00,SystemResetWarning,0818.3,5.01,000.00,023.8,022.9,000.0,032.2,025.1,9.7,0000.0,0006.88,0001.21,0000.62
2023-12-07 18:13:00,SystemResetWarning,0819.1,4.98,000.00,023.8,022.9,000.0,032.1,025.1,9.7,0000.0,0007.09,0001.22,0000.62
2023-12-07 18:14:00,SystemResetWarning,0818.8,5.00,000.00,023.8,022.9,000.0,032.1,025.1,9.9,0000.0,0008.18,0001.24,0000.61
2023-12-07 18:15:00,SystemResetWarning,0818.5,5.01,000.00,023.8,022.9,000.0,032.1,025.0,10.6,0000.0,0007.97,0001.23,0000.62
2023-12-07 18:16:00,SystemResetWarning,0818.6,4.99,000.00,023.8,022.9,000.0,032.1,025.1,10.7,0000.0,0008.09,0001.24,0000.63
2023-12-07 18:17:00,SystemResetWarning,0818.4,5.00,000.00,023.8,022.9,000.0,032.1,025.1,10.7,0000.0,0009.81,0001.27,0000.65
2023-12-07 18:18:00,SystemResetWarning,0818.4,5.02,000.00,023.8,022.9,000.0,032.1,025.1,10.7,0000.0,0010.37,0001.31,0000.64
2023-12-07 18:19:00,SystemResetWarning,0818.4,4.98,000.00,023.8,022.9,000.0,032.1,025.1,11.0,0000.0,0010.79,0001.34,0000.65
2023-12-07 18:20:00,SystemResetWarning,0818.4,4.99,000.00,023.8,022.9,000.0,032.1,025.1,10.8,0000.0,0011.24,0001.41,0000.65
2023-12-07 18:21:00,SystemResetWarning,0818.3,5.03,000.00,023.8,022.9,000.0,032.1,025.2,10.2,0000.0,0013.49,0001.71,0000.67
2023-12-07 18:22:00,SystemResetWarning,0818.1,4.98,000.00,023.8,022.9,000.0,032.1,025.1,10.3,0000.0,0014.31,0001.74,0000.68
2023-12-07 18:23:00,SystemResetWarning,0818.0,4.99,000.00,023.8,022.9,000.0,032.1,025.1,10.3,0000.0,0013.58,0001.76,0000.68
2023-12-07 18:24:00,SystemResetWarning,0817.9,5.00,000.00,023.8,022.9,000.0,032.1,025.1,10.6,0000.0,0013.45,0001.73,0000.68
2023-12-07 18:25:00,SystemResetWarning,0817.5,5.01,000.00,023.8,022.9,000.0,032.1,025.1,10.9,0000.0,0013.01,0001.75,0000.68
2023-12-07 18:26:00,SystemResetWarning,0817.6,5.01,000.00,023.8,022.9,000.0,032.1,025.1,11.0,0000.0,0012.67,0001.71,0000.68
2023-12-07 18:27:00,SystemResetWarning,0817.7,5.01,000.00,023.8,022.9,000.0,032.2,025.1,11.0,0000.0,0012.57,0001.71,0000.68
2023-12-07 18:28:00,SystemResetWarning,0817.6,4.99,000.00,023.8,022.9,000.0,032.2,025.1,11.3,0000.0,0011.26,0001.70,0000.67
2023-12-07 18:29:00,SystemResetWarning,0817.2,4.99,000.00,023.8,022.9,000.0,032.2,025.1,10.6,0000.0,0010.74,0001.72,0000.68
2023-12-07 18:30:00,SystemResetWarning,0817.3,5.01,000.00,023.8,022.9,000.0,032.2,025.1,10.1,0000.0,0011.54,0001.82,0000.69
2023-12-07 18:31:00,SystemResetWarning,0817.3,5.00,000.00,023.8,022.9,000.0,032.1,025.1,10.2,0000.0,0013.96,0001.89,0000.70
2023-12-07 18:32:00,SystemResetWarning,0817.4,4.99,000.00,023.8,022.9,000.0,032.2,025.1,10.5,0000.0,0013.26,0001.64,0000.68
2023-12-07 18:33:00,SystemResetWarning,0817.1,4.99,000.00,023.8,022.9,000.0,032.2,025.1,10.5,0000.0,0010.13,0001.41,0000.66
2023-12-07 18:34:00,SystemResetWarning,0817.2,5.00,000.00,023.8,022.9,000.0,032.2,025.1,10.6,0000.0,0010.54,0001.43,0000.68
2023-12-07 18:35:00,SystemResetWarning,0816.9,5.00,000.00,023.8,022.9,000.0,032.2,025.1,10.7,0000.0,0013.70,0001.75,0000.72
2023-12-07 18:36:00,SystemResetWarning,0817.1,5.01,000.00,023.8,022.9,000.0,032.2,025.1,10.5,0000.0,0021.36,0002.97,0000.86
2023-12-07 18:37:00,SystemResetWarning,0816.9,4.98,000.00,023.8,022.9,000.0,032.2,025.1,10.7,0000.0,0026.00,0003.45,0000.94
2023-12-07 18:38:00,SystemResetWarning,0817.0,5.00,000.00,023.8,022.9,000.0,032.2,025.1,10.4,0000.0,0026.58,0003.62,0000.96
2023-12-07 18:39:00,SystemResetWarning,0816.8,5.01,000.00,023.8,022.9,000.0,032.2,025.1,11.2,0000.0,0026.92,0003.70,0000.97
2023-12-07 18:40:00,SystemResetWarning,0816.6,4.98,000.00,023.8,022.9,000.0,032.1,025.1,11.0,0000.0,0029.72,0003.89,0000.99
2023-12-07 18:41:00,SystemResetWarning,0816.5,5.01,000.00,023.8,022.9,000.0,032.2,025.1,10.6,0000.0,0031.79,0003.97,0000.99
2023-12-07 18:42:00,SystemResetWarning,0816.3,5.00,000.00,023.8,022.9,000.0,032.2,025.1,10.8,0000.0,0030.88,0004.07,0001.00
2023-12-07 18:43:00,SystemResetWarning,0816.4,4.98,000.00,023.8,022.8,000.0,032.2,025.0,11.1,0000.0,0031.06,0004.15,0001.01
2023-12-07 18:44:00,SystemResetWarning,0816.7,5.00,000.00,023.8,022.8,000.0,032.2,025.0,10.7,0000.0,0032.77,0004.28,0001.04
2023-12-07 18:45:00,SystemResetWarning,0816.8,5.02,000.00,023.8,022.8,000.0,032.2,025.0,10.9,0000.0,0036.16,0004.38,0001.07
2023-12-07 18:46:00,SystemResetWarning,0816.6,4.98,000.00,023.7,022.8,000.0,032.1,025.0,11.1,0000.0,0036.18,0004.49,0001.09
2023-12-07 18:47:00,SystemResetWarning,0816.2,5.00,000.00,023.7,022.8,000.0,032.1,025.0,10.7,0000.0,0032.22,0004.12,0001.03
2023-12-07 18:48:00,SystemResetWarning,0816.4,5.02,000.00,023.7,022.8,000.0,032.1,025.0,10.3,0000.0,0026.41,0003.63,0000.92
2023-12-07 18:49:00,SystemResetWarning,0816.6,4.99,000.00,023.7,022.7,000.0,032.1,025.0,11.0,0000.0,0027.91,0003.52,0000.90
2023-12-07 18:50:00,SystemResetWarning,0816.7,4.98,000.00,023.7,022.7,000.0,032.1,025.0,11.0,0000.0,0032.75,0003.61,0000.92
2023-12-07 18:51:00,SystemResetWarning,0816.7,5.01,000.00,023.7,022.7,000.0,032.1,024.9,11.3,0000.0,0036.15,0003.90,0000.96
2023-12-07 18:52:00,SystemResetWarning,0816.8,5.01,000.00,023.7,022.7,000.0,032.1,024.9,11.1,0000.0,0043.50,0004.31,0001.03
2023-12-07 18:53:00,SystemResetWarning,0816.9,5.01,000.00,023.7,022.7,000.0,032.1,024.9,11.2,0000.0,0043.71,0004.33,0001.04
2023-12-07 18:54:00,SystemResetWarning,0817.0,4.99,000.00,023.7,022.7,000.0,032.1,024.9,11.3,0000.0,0043.82,0004.42,0001.06
2023-12-07 18:55:00,SystemResetWarning,0816.9,4.99,000.00,023.7,022.7,000.0,032.0,025.0,11.4,0000.0,0044.19,0004.43,0001.07
2023-12-07 18:56:00,SystemResetWarning,0816.9,5.01,000.00,023.7,022.7,000.0,032.0,025.0,11.0,0000.0,0042.28,0004.42,0001.06
2023-12-07 18:57:00,SystemResetWarning,0816.9,5.00,000.00,023.7,022.7,000.0,032.0,024.9,11.0,0000.0,0054.70,0004.43,0001.06
2023-12-07 18:58:00,SystemResetWarning,0817.1,5.01,000.00,023.7,022.7,000.0,032.0,024.9,10.8,0000.0,0055.21,0004.40,0001.06
2023-12-07 18:59:00,SystemResetWarning,0817.3,5.00,000.00,023.7,022.7,000.0,032.0,024.9,10.7,0000.0,0059.51,0004.43,0001.07
